Time,TemperatureF,DewpointF,PressureIn,WindDirection,WindDirectionDegrees,WindSpeedMPH,WindSpeedGustMPH,Humidity,HourlyPrecipIn,Conditions,Clouds,dailyrainin,SoftwareType,DateUTC
2013-08-31 00:05:00,74.6,28.3,29.80,West,268,0.0,0.0,18,0.00,,,0.00,Wunderground v.1.15,2013-08-31 07:05:00,
2013-08-31 00:11:00,76.0,29.4,29.80,West,266,0.0,0.0,18,0.00,,,0.00,Wunderground v.1.15,2013-08-31 07:11:00,
2013-08-31 00:17:00,76.8,28.7,29.80,West,274,0.0,0.0,17,0.00,,,0.00,Wunderground v.1.15,2013-08-31 07:17:00,
2013-08-31 00:23:00,77.0,28.8,29.80,West,270,0.0,0.0,17,0.00,,,0.00,Wunderground v.1.15,2013-08-31 07:23:00,
2013-08-31 00:28:00,76.7,28.6,29.80,WNW,293,0.0,0.0,17,0.00,,,0.00,Wunderground v.1.15,2013-08-31 07:28:00,
2013-08-31 00:34:00,76.7,28.6,29.80,WSW,255,0.0,0.0,17,0.00,,,0.00,Wunderground v.1.15,2013-08-31 07:34:00,
2013-08-31 00:40:00,76.7,28.6,29.80,West,264,0.0,0.0,17,0.00,,,0.00,Wunderground v.1.15,2013-08-31 07:40:00,
2013-08-31 00:45:00,76.8,28.7,29.80,West,275,0.0,0.0,17,0.00,,,0.00,Wunderground v.1.15,2013-08-31 07:45:00,
2013-08-31 00:51:00,77.0,28.8,29.80,WSW,240,0.0,0.0,17,0.00,,,0.00,Wunderground v.1.15,2013-08-31 07:51:00,
2013-08-31 00:57:00,77.2,29.0,29.81,WNW,288,0.0,0.0,17,0.00,,,0.00,Wunderground v.1.15,2013-08-31 07:57:00,
2013-08-31 01:02:00,77.2,29.0,29.80,West,276,0.0,0.0,17,0.00,,,0.00,Wunderground v.1.15,2013-08-31 08:02:00,
2013-08-31 01:08:00,77.0,28.8,29.80,WSW,238,0.0,0.0,17,0.00,,,0.00,Wunderground v.1.15,2013-08-31 08:08:00,
2013-08-31 01:14:00,76.7,28.6,29.80,WSW,251,0.0,0.0,17,0.00,,,0.00,Wunderground v.1.15,2013-08-31 08:14:00,
2013-08-31 01:20:00,76.5,29.8,29.80,West,277,0.0,0.0,18,0.00,,,0.00,Wunderground v.1.15,2013-08-31 08:20:00,
2013-08-31 01:25:00,76.4,29.7,29.80,West,271,0.0,0.0,18,0.00,,,0.00,Wunderground v.1.15,2013-08-31 08:25:00,
2013-08-31 01:31:00,76.2,30.9,29.80,West,262,0.0,0.0,19,0.00,,,0.00,Wunderground v.1.15,2013-08-31 08:31:00,
2013-08-31 01:37:00,76.1,30.8,29.80,West,264,0.0,0.0,19,0.00,,,0.00,Wunderground v.1.15,2013-08-31 08:37:00,
2013-08-31 01:42:00,75.8,30.6,29.80,West,259,0.0,0.0,19,0.00,,,0.00,Wunderground v.1.15,2013-08-31 08:42:00,
2013-08-31 01:48:00,75.5,30.3,29.80,West,275,0.0,0.0,19,0.00,,,0.00,Wunderground v.1.15,2013-08-31 08:48:00,
2013-08-31 01:53:00,74.8,29.8,29.80,WNW,289,0.0,0.0,19,0.00,,,0.00,Wunderground v.1.15,2013-08-31 08:53:00,
2013-08-31 01:59:00,73.5,31.1,29.80,NW,304,0.0,0.0,21,0.00,,,0.00,Wunderground v.1.15,2013-08-31 08:59:00,
2013-08-31 02:05:00,72.8,30.6,29.80,WNW,282,0.0,0.0,21,0.00,,,0.00,Wunderground v.1.15,2013-08-31 09:05:00,
2013-08-31 02:11:00,73.7,30.1,29.80,WNW,289,0.0,0.0,20,0.00,,,0.00,Wunderground v.1.15,2013-08-31 09:11:00,
2013-08-31 02:16:00,72.2,30.1,29.80,WSW,241,0.0,0.0,21,0.00,,,0.00,Wunderground v.1.15,2013-08-31 09:16:00,
2013-08-31 02:22:00,71.6,30.7,29.80,WSW,240,0.0,0.0,22,0.00,,,0.00,Wunderground v.1.15,2013-08-31 09:22:00,
2013-08-31 02:27:00,71.4,30.5,29.81,WSW,241,0.0,0.0,22,0.00,,,0.00,Wunderground v.1.15,2013-08-31 09:27:00,
2013-08-31 02:33:00,71.8,30.9,29.80,WSW,241,0.0,0.0,22,0.00,,,0.00,Wunderground v.1.15,2013-08-31 09:33:00,
2013-08-31 02:39:00,71.5,30.6,29.80,WSW,241,0.0,0.0,22,0.00,,,0.00,Wunderground v.1.15,2013-08-31 09:39:00,
2013-08-31 02:45:00,70.7,31.1,29.81,SW,231,0.0,0.0,23,0.00,,,0.00,Wunderground v.1.15,2013-08-31 09:45:00,
2013-08-31 02:50:00,69.8,31.4,29.81,SW,233,0.0,0.0,24,0.00,,,0.00,Wunderground v.1.15,2013-08-31 09:50:00,
2013-08-31 02:56:00,69.6,31.2,29.80,SW,233,0.0,0.0,24,0.00,,,0.00,Wunderground v.1.15,2013-08-31 09:56:00,
2013-08-31 03:01:00,68.2,30.0,29.80,SW,234,0.0,0.0,24,0.00,,,0.00,Wunderground v.1.15,2013-08-31 10:01:00,
2013-08-31 03:06:00,67.8,30.7,29.80,SW,234,0.0,0.0,25,0.00,,,0.00,Wunderground v.1.15,2013-08-31 10:06:00,
2013-08-31 03:12:00,67.5,31.4,29.80,SW,233,0.0,0.0,26,0.00,,,0.00,Wunderground v.1.15,2013-08-31 10:12:00,
2013-08-31 03:17:00,67.4,30.3,29.80,SW,233,0.0,0.0,25,0.00,,,0.00,Wunderground v.1.15,2013-08-31 10:17:00,
2013-08-31 03:23:00,66.9,30.9,29.80,SW,234,0.0,0.0,26,0.00,,,0.00,Wunderground v.1.15,2013-08-31 10:23:00,
2013-08-31 03:29:00,67.1,32.0,29.80,SW,233,0.0,0.0,27,0.00,,,0.00,Wunderground v.1.15,2013-08-31 10:29:00,
2013-08-31 03:34:00,67.0,32.8,29.80,SW,233,0.0,0.0,28,0.00,,,0.00,Wunderground v.1.15,2013-08-31 10:34:00,
2013-08-31 03:40:00,66.9,32.7,29.80,SW,233,0.0,0.0,28,0.00,,,0.00,Wunderground v.1.15,2013-08-31 10:40:00,
2013-08-31 03:46:00,65.9,32.7,29.80,WNW,288,0.0,0.0,29,0.00,,,0.00,Wunderground v.1.15,2013-08-31 10:46:00,
2013-08-31 03:51:00,65.9,32.7,29.80,WNW,287,0.0,0.0,29,0.00,,,0.00,Wunderground v.1.15,2013-08-31 10:51:00,
2013-08-31 03:57:00,66.1,32.9,29.79,WNW,288,0.0,0.0,29,0.00,,,0.00,Wunderground v.1.15,2013-08-31 10:57:00,
2013-08-31 04:03:00,66.7,33.4,29.80,West,263,0.0,0.0,29,0.00,,,0.00,Wunderground v.1.15,2013-08-31 11:03:00,
2013-08-31 04:08:00,67.5,33.2,29.80,WSW,253,0.0,0.0,28,0.00,,,0.00,Wunderground v.1.15,2013-08-31 11:08:00,
2013-08-31 04:14:00,67.8,33.5,29.80,WSW,258,0.0,0.0,28,0.00,,,0.00,Wunderground v.1.15,2013-08-31 11:14:00,
2013-08-31 04:20:00,68.0,33.7,29.79,West,260,0.0,0.0,28,0.00,,,0.00,Wunderground v.1.15,2013-08-31 11:20:00,
2013-08-31 04:25:00,68.0,33.7,29.79,West,261,0.0,0.0,28,0.00,,,0.00,Wunderground v.1.15,2013-08-31 11:25:00,
2013-08-31 04:31:00,67.7,33.4,29.79,WSW,242,0.0,0.0,28,0.00,,,0.00,Wunderground v.1.15,2013-08-31 11:31:00,
2013-08-31 04:37:00,67.7,33.4,29.79,WSW,246,0.0,0.0,28,0.00,,,0.00,Wunderground v.1.15,2013-08-31 11:37:00,
2013-08-31 04:42:00,67.7,33.4,29.79,WSW,243,0.0,0.0,28,0.00,,,0.00,Wunderground v.1.15,2013-08-31 11:42:00,
2013-08-31 04:48:00,67.2,33.8,29.79,WSW,244,0.0,0.0,29,0.00,,,0.00,Wunderground v.1.15,2013-08-31 11:48:00,
2013-08-31 04:54:00,67.2,34.7,29.80,WSW,247,0.0,0.0,30,0.00,,,0.00,Wunderground v.1.15,2013-08-31 11:54:00,
2013-08-31 04:59:00,67.0,34.5,29.79,WSW,247,0.0,0.0,30,0.00,,,0.00,Wunderground v.1.15,2013-08-31 11:59:00,
2013-08-31 05:05:00,66.8,34.3,29.80,WSW,247,0.0,0.0,30,0.00,,,0.00,Wunderground v.1.15,2013-08-31 12:05:00,
2013-08-31 05:11:00,66.9,34.4,29.80,WSW,247,0.0,0.0,30,0.00,,,0.00,Wunderground v.1.15,2013-08-31 12:11:00,
2013-08-31 05:16:00,66.5,35.7,29.80,West,259,0.0,0.0,32,0.00,,,0.00,Wunderground v.1.15,2013-08-31 12:16:00,
2013-08-31 05:22:00,65.8,35.9,29.80,WSW,254,0.0,0.0,33,0.00,,,0.00,Wunderground v.1.15,2013-08-31 12:22:00,
2013-08-31 05:28:00,66.3,34.7,29.80,West,259,0.0,0.0,31,0.00,,,0.00,Wunderground v.1.15,2013-08-31 12:28:00,
2013-08-31 05:33:00,65.8,35.9,29.80,West,259,0.0,0.0,33,0.00,,,0.00,Wunderground v.1.15,2013-08-31 12:33:00,
2013-08-31 05:39:00,65.4,35.5,29.80,WSW,256,0.0,0.0,33,0.00,,,0.00,Wunderground v.1.15,2013-08-31 12:39:00,
2013-08-31 05:45:00,65.3,33.9,29.80,WSW,250,0.0,0.0,31,0.00,,,0.00,Wunderground v.1.15,2013-08-31 12:45:00,
2013-08-31 05:51:00,66.0,34.5,29.80,WSW,257,0.0,0.0,31,0.00,,,0.00,Wunderground v.1.15,2013-08-31 12:51:00,
2013-08-31 05:56:00,65.8,33.5,29.80,West,262,0.0,0.0,30,0.00,,,0.00,Wunderground v.1.15,2013-08-31 12:56:00,
2013-08-31 06:01:00,65.4,33.1,29.80,West,259,0.0,0.0,30,0.00,,,0.00,Wunderground v.1.15,2013-08-31 13:01:00,
2013-08-31 06:07:00,65.4,33.1,29.80,West,259,0.0,0.0,30,0.00,,,0.00,Wunderground v.1.15,2013-08-31 13:07:00,
2013-08-31 06:12:00,-999.9,-99.9,29.80,North,32767,-999.0,0.0,255,-99.99,,,0.00,Wunderground v.1.15,2013-08-31 13:12:00,
2013-08-31 06:18:00,-999.9,-99.9,29.80,North,32767,-999.0,0.0,255,-99.99,,,0.00,Wunderground v.1.15,2013-08-31 13:18:00,
2013-08-31 06:23:00,-999.9,-99.9,29.80,North,32767,-999.0,0.0,255,-99.99,,,0.00,Wunderground v.1.15,2013-08-31 13:23:00,
2013-08-31 06:29:00,-999.9,-99.9,29.80,North,32767,-999.0,0.0,255,-99.99,,,0.00,Wunderground v.1.15,2013-08-31 13:29:00,
2013-08-31 06:34:00,-999.9,-99.9,29.80,North,32767,-999.0,0.0,255,-99.99,,,0.00,Wunderground v.1.15,2013-08-31 13:34:00,
2013-08-31 06:40:00,-999.9,-99.9,29.80,North,32767,-999.0,0.0,255,-99.99,,,0.00,Wunderground v.1.15,2013-08-31 13:40:00,
2013-08-31 06:46:00,-999.9,-99.9,29.80,North,32767,-999.0,0.0,255,-99.99,,,0.00,Wunderground v.1.15,2013-08-31 13:46:00,
2013-08-31 06:51:00,-999.9,-99.9,29.80,North,32767,-999.0,0.0,255,-99.99,,,0.00,Wunderground v.1.15,2013-08-31 13:51:00,
2013-08-31 06:56:00,-999.9,-99.9,29.80,North,32767,-999.0,0.0,255,-99.99,,,0.00,Wunderground v.1.15,2013-08-31 13:56:00,
2013-08-31 07:03:00,-999.9,-99.9,29.80,North,32767,-999.0,0.0,255,-99.99,,,0.00,Wunderground v.1.15,2013-08-31 14:03:00,
2013-08-31 07:08:00,-999.9,-99.9,29.80,North,32767,-999.0,0.0,255,-99.99,,,0.00,Wunderground v.1.15,2013-08-31 14:08:00,
2013-08-31 07:14:00,62.4,-99.9,29.80,West,264,0.0,0.0,255,0.00,,,0.00,Wunderground v.1.15,2013-08-31 14:14:00,
2013-08-31 07:19:00,63.2,34.3,29.81,West,263,0.0,0.0,34,0.00,,,0.00,Wunderground v.1.15,2013-08-31 14:19:00,
2013-08-31 07:25:00,63.5,33.9,29.81,West,259,0.0,0.0,33,0.00,,,0.00,Wunderground v.1.15,2013-08-31 14:25:00,
2013-08-31 07:31:00,64.4,34.6,29.81,West,262,0.0,0.0,33,0.00,,,0.00,Wunderground v.1.15,2013-08-31 14:31:00,
2013-08-31 07:37:00,65.4,34.8,29.81,West,266,0.0,0.0,32,0.00,,,0.00,Wunderground v.1.15,2013-08-31 14:37:00,
2013-08-31 07:42:00,66.0,34.5,29.81,West,263,0.0,0.0,31,0.00,,,0.00,Wunderground v.1.15,2013-08-31 14:42:00,
2013-08-31 07:48:00,66.8,34.3,29.82,West,265,0.0,0.0,30,0.00,,,0.00,Wunderground v.1.15,2013-08-31 14:48:00,
2013-08-31 07:54:00,67.5,35.0,29.82,West,266,0.0,0.0,30,0.00,,,0.00,Wunderground v.1.15,2013-08-31 14:54:00,
2013-08-31 08:00:00,68.0,34.5,29.82,West,271,0.0,0.0,29,0.00,,,0.00,Wunderground v.1.15,2013-08-31 15:00:00,
2013-08-31 08:05:00,68.4,34.9,29.82,WSW,258,0.0,0.0,29,0.00,,,0.00,Wunderground v.1.15,2013-08-31 15:05:00,
2013-08-31 08:11:00,68.8,35.2,29.82,West,262,0.0,0.0,29,0.00,,,0.00,Wunderground v.1.15,2013-08-31 15:11:00,
2013-08-31 08:17:00,69.4,35.7,29.82,WNW,290,0.0,0.0,29,0.00,,,0.00,Wunderground v.1.15,2013-08-31 15:17:00,
2013-08-31 08:22:00,70.1,35.5,29.82,West,278,0.0,0.0,28,0.00,,,0.00,Wunderground v.1.15,2013-08-31 15:22:00,
2013-08-31 08:28:00,71.0,36.2,29.82,WSW,258,0.0,0.0,28,0.00,,,0.00,Wunderground v.1.15,2013-08-31 15:28:00,
2013-08-31 08:34:00,71.8,36.0,29.82,West,260,0.0,0.0,27,0.00,,,0.00,Wunderground v.1.15,2013-08-31 15:34:00,
2013-08-31 08:40:00,72.7,35.8,29.82,WSW,257,0.0,0.0,26,0.00,,,0.00,Wunderground v.1.15,2013-08-31 15:40:00,
2013-08-31 08:45:00,73.6,35.6,29.82,West,262,0.0,0.0,25,0.00,,,0.00,Wunderground v.1.15,2013-08-31 15:45:00,
2013-08-31 08:51:00,74.4,35.2,29.82,West,280,0.0,0.0,24,0.00,,,0.00,Wunderground v.1.15,2013-08-31 15:51:00,
2013-08-31 08:57:00,75.3,36.0,29.82,West,281,0.0,0.0,24,0.00,,,0.00,Wunderground v.1.15,2013-08-31 15:57:00,
2013-08-31 09:02:00,76.0,35.5,29.82,West,264,0.0,0.0,23,0.00,,,0.00,Wunderground v.1.15,2013-08-31 16:02:00,
2013-08-31 09:08:00,76.6,34.9,29.82,West,264,0.0,0.0,22,0.00,,,0.00,Wunderground v.1.15,2013-08-31 16:08:00,
2013-08-31 09:14:00,77.2,35.4,29.82,WSW,252,0.0,0.0,22,0.00,,,0.00,Wunderground v.1.15,2013-08-31 16:14:00,
2013-08-31 09:19:00,78.0,36.1,29.82,NNW,332,0.0,0.0,22,0.00,,,0.00,Wunderground v.1.15,2013-08-31 16:19:00,
2013-08-31 09:25:00,78.5,35.3,29.82,West,281,0.0,0.0,21,0.00,,,0.00,Wunderground v.1.15,2013-08-31 16:25:00,
2013-08-31 09:31:00,78.8,35.5,29.82,WNW,298,0.0,0.0,21,0.00,,,0.00,Wunderground v.1.15,2013-08-31 16:31:00,
2013-08-31 09:37:00,79.4,36.0,29.82,West,274,0.0,0.0,21,0.00,,,0.00,Wunderground v.1.15,2013-08-31 16:37:00,
2013-08-31 09:42:00,80.1,34.1,29.82,WNW,297,0.0,0.0,19,0.00,,,0.00,Wunderground v.1.15,2013-08-31 16:42:00,
2013-08-31 09:48:00,80.6,33.2,29.82,NW,311,0.0,0.0,18,0.00,,,0.00,Wunderground v.1.15,2013-08-31 16:48:00,
2013-08-31 09:54:00,80.7,34.6,29.82,WNW,285,0.0,0.0,19,0.00,,,0.00,Wunderground v.1.15,2013-08-31 16:54:00,
2013-08-31 09:59:00,80.7,33.2,29.82,West,276,0.0,0.0,18,0.00,,,0.00,Wunderground v.1.15,2013-08-31 16:59:00,
2013-08-31 10:05:00,81.1,32.1,29.82,WNW,288,0.0,0.0,17,0.00,,,0.00,Wunderground v.1.15,2013-08-31 17:05:00,
2013-08-31 10:11:00,81.2,32.2,29.81,WNW,295,0.0,0.0,17,0.00,,,0.00,Wunderground v.1.15,2013-08-31 17:11:00,
2013-08-31 10:17:00,81.9,32.8,29.81,West,267,0.0,0.0,17,0.00,,,0.00,Wunderground v.1.15,2013-08-31 17:17:00,
2013-08-31 10:22:00,82.3,31.6,29.81,WNW,301,0.0,0.0,16,0.00,,,0.00,Wunderground v.1.15,2013-08-31 17:22:00,
2013-08-31 10:28:00,82.7,31.9,29.81,NW,311,0.0,0.0,16,0.00,,,0.00,Wunderground v.1.15,2013-08-31 17:28:00,
2013-08-31 10:34:00,83.3,30.8,29.81,WNW,302,0.0,0.0,15,0.00,,,0.00,Wunderground v.1.15,2013-08-31 17:34:00,
2013-08-31 10:39:00,84.1,31.4,29.81,WSW,254,0.0,0.0,15,0.00,,,0.00,Wunderground v.1.15,2013-08-31 17:39:00,
2013-08-31 10:45:00,83.9,29.6,29.81,North,7,1.0,5.0,14,0.00,,,0.00,Wunderground v.1.15,2013-08-31 17:45:00,
2013-08-31 10:51:00,83.5,29.3,29.81,NNW,345,1.0,1.0,14,0.00,,,0.00,Wunderground v.1.15,2013-08-31 17:51:00,
2013-08-31 10:57:00,83.8,29.5,29.80,NW,315,0.0,1.0,14,0.00,,,0.00,Wunderground v.1.15,2013-08-31 17:57:00,
2013-08-31 11:03:00,84.3,29.9,29.81,West,278,0.0,0.0,14,0.00,,,0.00,Wunderground v.1.15,2013-08-31 18:03:00,
2013-08-31 11:08:00,85.3,30.7,29.80,WSW,238,0.0,0.0,14,0.00,,,0.00,Wunderground v.1.15,2013-08-31 18:08:00,
2013-08-31 11:14:00,85.7,31.0,29.80,WSW,252,0.0,0.0,14,0.00,,,0.00,Wunderground v.1.15,2013-08-31 18:14:00,
2013-08-31 11:19:00,86.5,31.6,29.80,North,350,0.0,0.0,14,0.00,,,0.00,Wunderground v.1.15,2013-08-31 18:19:00,
2013-08-31 11:25:00,86.3,33.2,29.80,NW,319,0.0,0.0,15,0.00,,,0.00,Wunderground v.1.15,2013-08-31 18:25:00,
2013-08-31 11:31:00,86.0,33.0,29.79,WNW,297,0.0,0.0,15,0.00,,,0.00,Wunderground v.1.15,2013-08-31 18:31:00,
2013-08-31 11:37:00,86.4,33.3,29.79,North,11,0.0,0.0,15,0.00,,,0.00,Wunderground v.1.15,2013-08-31 18:37:00,
2013-08-31 11:42:00,86.2,31.4,29.79,NW,319,0.0,0.0,14,0.00,,,0.00,Wunderground v.1.15,2013-08-31 18:42:00,
2013-08-31 11:48:00,86.8,31.9,29.78,NNW,335,0.0,0.0,14,0.00,,,0.00,Wunderground v.1.15,2013-08-31 18:48:00,
2013-08-31 11:53:00,86.7,31.8,29.78,NNW,334,0.0,0.0,14,0.00,,,0.00,Wunderground v.1.15,2013-08-31 18:53:00,
2013-08-31 11:59:00,86.5,33.4,29.78,WNW,303,0.0,0.0,15,0.00,,,0.00,Wunderground v.1.15,2013-08-31 18:59:00,
2013-08-31 12:05:00,87.8,32.7,29.77,WNW,295,0.0,0.0,14,0.00,,,0.00,Wunderground v.1.15,2013-08-31 19:05:00,
2013-08-31 12:11:00,87.7,32.6,29.77,NW,325,0.0,0.0,14,0.00,,,0.00,Wunderground v.1.15,2013-08-31 19:11:00,
2013-08-31 12:16:00,87.5,32.4,29.77,WNW,287,0.0,0.0,14,0.00,,,0.00,Wunderground v.1.15,2013-08-31 19:16:00,
2013-08-31 12:22:00,88.5,33.2,29.77,NE,44,0.0,0.0,14,0.00,,,0.00,Wunderground v.1.15,2013-08-31 19:22:00,
2013-08-31 12:28:00,88.6,33.3,29.76,NNW,343,0.0,0.0,14,0.00,,,0.00,Wunderground v.1.15,2013-08-31 19:28:00,
2013-08-31 12:33:00,88.0,32.8,29.76,NNW,347,0.0,0.0,14,0.00,,,0.00,Wunderground v.1.15,2013-08-31 19:33:00,
2013-08-31 12:39:00,88.5,33.2,29.76,West,271,0.0,0.0,14,0.00,,,0.00,Wunderground v.1.15,2013-08-31 19:39:00,
2013-08-31 12:45:00,89.6,34.1,29.76,NNE,15,0.0,0.0,14,0.00,,,0.00,Wunderground v.1.15,2013-08-31 19:45:00,
2013-08-31 12:50:00,89.8,32.4,29.75,NNE,15,0.0,0.0,13,0.00,,,0.00,Wunderground v.1.15,2013-08-31 19:50:00,
2013-08-31 12:56:00,89.6,32.2,29.75,WNW,287,0.0,0.0,13,0.00,,,0.00,Wunderground v.1.15,2013-08-31 19:56:00,
2013-08-31 13:01:00,90.2,32.7,29.75,SE,136,0.0,0.0,13,0.00,,,0.00,Wunderground v.1.15,2013-08-31 20:01:00,
2013-08-31 13:06:00,91.1,33.4,29.75,South,180,0.0,0.0,13,0.00,,,0.00,Wunderground v.1.15,2013-08-31 20:06:00,
2013-08-31 13:12:00,91.8,33.9,29.75,SW,226,0.0,0.0,13,0.00,,,0.00,Wunderground v.1.15,2013-08-31 20:12:00,
2013-08-31 13:17:00,91.3,33.6,29.74,SSE,161,0.0,0.0,13,0.00,,,0.00,Wunderground v.1.15,2013-08-31 20:17:00,